Вернуться в каталог

METEOR 2-11 DEB

АктивенPO
NORAD 45517·DEBRIS·🇷🇺 Russia

Запущен Jul 5, 1984 с Plesetsk Cosmodrome

Loading…

Ближайшие Пролёты (ближайшие 24 часа)

TLE

СвежийSource: Space-Track

Эпоха: Sep 14, 2026, 08:34 UTC

1 45517U 84072X   26257.35754924  .00001245  00000-0  78051-3 0  9990
2 45517  82.5186 279.2674 0007486  52.7053   6.2331 14.03825899605610

Отслеживайте METEOR 2-11 DEB в реальном времени с AllMySat

Download on the App Store